Regional Weather Roundup
Issued by NWS

Home | Current Version | Previous Version | Graphics & Text | Print | Product List | Glossary On
Versions: 1 2 3 4 5 6 7 8 9 10 11 12 13 14 15 16 17 18 19 20 21 22 23 24 25 26 27 28 29 30 31 32 33 34 35 36 37 38 39 40 41 42 43 44 45 46 47 48 49 50
065
ASUS43 KIND 260009
RWRIN

WEATHER ROUNDUP FOR INDIANA
NATIONAL WEATHER SERVICE INDIANAPOLIS IN
800 PM EDT THU MAY 25 2017

NOTE: "FAIR" INDICATES FEW OR NO CLOUDS BELOW 12,000 FEET WITH NO
SIGNIFICANT WEATHER AND/OR OBSTRUCTIONS TO VISIBILITY.

* - STATION DOES NOT REPORT WEATHER SUCH AS PRECIPITATION OR FOG.

+ - STATION NOT QUALITY CONTROLLED BY THE NATIONAL WEATHER SERVICE.
    USE DATA WITH CAUTION...ESPECIALLY DEWPOINT AND RELATIVE
    HUMIDITY OBSERVATIONS.

INZ001>003-010>013-019-020-260100-
NORTHWEST INDIANA

CITY           SKY/WX    TMP DP  RH WIND       PRES   REMARKS
GARY /AIRPORT/ MOSUNNY   59  52  77 NW12      29.70R
KNOX *+        MOSUNNY   61  45  55 NW14      29.67R
LA PORTE +     SUNNY     57  52  83 NW5       29.68R
6HR MIN TEMP:  52; 6HR MAX TEMP:  60;

MICHIGAN CITY+ SUNNY     52  50  93 NW6       29.69R
MONTICELLO +   CLOUDY    62  55  77 NW8       29.68R
6HR MIN TEMP:  58; 6HR MAX TEMP:  63;

RENSSELAER +   CLOUDY    63  54  72 NW5       29.68S
VALPARAISO     SUNNY     60  53  77 N9        29.68R
6HR MIN TEMP:  59; 6HR MAX TEMP:  65;


$$

LMZ046-743>745-260100-
SOUTHERN LAKE MICHIGAN

STATION/POSITION TIME  TEMP    WIND        PRES    WAVE
                       AIR SEA DIR/SP/G            HT
                 (UTC) (F)     (DEG/KT/KT) (MB)    (FT)
BURNS HARBOR     2330   52     330/  5/  6 1006.1R
MICHIGAN CITY    2340   50     280/  6/  6   N/A
5NW MICH CITY    0000   50 51  300/  4/  6   N/A     3

$$

INZ004-005-014>016-021>024-260100-
NORTH CENTRAL INDIANA

CITY           SKY/WX    TMP DP  RH WIND       PRES   REMARKS
ELKHART        MOSUNNY   61  54  77 NW12      29.64R
GOSHEN         PTSUNNY   61  53  75 NW12      29.63R
6HR MIN TEMP:  60; 6HR MAX TEMP:  62;

LOGANSPORT +   PTSUNNY   61  54  77 NW8       29.68R
ROCHESTER +    PTSUNNY   63  55  77 NW9       29.67R
SOUTH BEND     SUNNY     57  52  83 NW8       29.66R
6HR MIN TEMP:  57; 6HR MAX TEMP:  60;

WARSAW +       CLOUDY    59  54  82 NW10G17   29.64R

$$

INZ006>009-017-018-025>027-260100-
NORTHEAST INDIANA

CITY           SKY/WX    TMP DP  RH WIND       PRES   REMARKS
AUBURN +       CLOUDY    61  55  82 W9        29.62R
FORT WAYNE     CLOUDY    61  55  81 NW12      29.63R
6HR MIN TEMP:  61; 6HR MAX TEMP:  65;

HUNTINGTON +   CLOUDY    58  56  91 W6        29.65R
6HR MIN TEMP:  58; 6HR MAX TEMP:  62;

KENDALLVILLE + CLOUDY    60  57  89 NW5       29.62R

$$

INZ028-029-035-036-043>045-051>053-260100-
WEST CENTRAL INDIANA

CITY           SKY/WX    TMP DP  RH WIND       PRES   REMARKS
CRAWFORDSVL +  CLOUDY    60  55  83 W13       29.71R
6HR MIN TEMP:  60; 6HR MAX TEMP:  63; 6HR PCP:  0.01;

GREENCASTLE +  PTSUNNY   63  52  67 W5        29.72R
LAFAYETTE      CLOUDY    63  56  78 W12       29.68R
6HR MIN TEMP:  61; 6HR MAX TEMP:  63;

TERRE HAUTE    MOSUNNY   66  55  67 NW8       29.72R
6HR MIN TEMP:  63; 6HR MAX TEMP:  68;


$$

INZ030>032-037>040-046>048-054>057-064-065-260100-
CENTRAL INDIANA

CITY           SKY/WX    TMP DP  RH WIND       PRES   REMARKS
CP ATTERBURY + CLOUDY    63  54  72 W8        29.70R
COLUMBUS       MOCLDY    64  54  68 W12       29.70R
FRANKFORT +    CLOUDY    64  58  80 NW8       29.71R
6HR MIN TEMP:  61; 6HR MAX TEMP:  65;

INDIANAPOLIS   CLOUDY    63  55  75 W14       29.69R
6HR MIN TEMP:  61; 6HR MAX TEMP:  64;

-EAGLE CREEK   CLOUDY    63  55  75 W12       29.69R
6HR MIN TEMP:  60; 6HR MAX TEMP:  65;

KOKOMO +       CLOUDY    62  55  77 NW15      29.68R
6HR MIN TEMP:  59; 6HR MAX TEMP:  63;

MT COMFORT *+  CLOUDY    61  55  82 NW10G16   29.69R
SHELBYVILLE    CLOUDY    64  56  75 NW6       29.68R
6HR MIN TEMP:  62; 6HR MAX TEMP:  66;

ZIONSVILLE +   CLOUDY    60  56  84 W7        29.70R
6HR MIN TEMP:  58; 6HR MAX TEMP:  61;


$$

INZ033-034-041-042-049-050-058-059-260100-
EAST CENTRAL INDIANA

CITY           SKY/WX    TMP DP  RH WIND       PRES   REMARKS
MUNCIE         CLOUDY    61  55  81 NW10      29.66R
6HR MIN TEMP:  61; 6HR MAX TEMP:  62;

RICHMOND +     CLOUDY    59  54  82 W15       29.67R

$$

INZ060-061-067>069-081>083-085>088-260100-
SOUTHWEST INDIANA

CITY           SKY/WX    TMP DP  RH WIND       PRES   REMARKS
EVANSVILLE     MOSUNNY   73  52  47 W10       29.73R
6HR MIN TEMP:  69; 6HR MAX TEMP:  75;

HUNTINGBURG *+ MOSUNNY   69  58  67 W8        29.73R
6HR MIN TEMP:  65; 6HR MAX TEMP:  72;

WASHINGTON +   MOSUNNY   68  56  64 N7        29.71S
6HR MIN TEMP:  64; 6HR MAX TEMP:  69;


$$

INZ062-063-066-070>080-084-089>092-260100-
SOUTH CENTRAL AND SOUTHEAST INDIANA

CITY           SKY/WX    TMP DP  RH WIND       PRES   REMARKS
BLOOMINGTON    PTSUNNY   65  54  67 W8        29.71R
6HR MIN TEMP:  62; 6HR MAX TEMP:  67;

MADISON *+     MOCLDY    64  52  63 W12       29.72R
NORTH VERNON + CLOUDY    63  54  72 W9        29.71R
SEYMOUR +      PTCLDY    68  55  64 W9        29.70R

$$





USA.gov is the U.S. government's official web portal to all federal, state and local government web resources and services.